Regional Weather Roundup
Issued by NWS Goodland, KS

Home | Current Version | Previous Version | Text Only | Print | Product List | Glossary Off
Versions: 1 2 3 4 5 6 7 8 9 10 11 12 13 14 15 16 17 18 19 20 21 22 23 24 25 26 27 28 29 30 31 32 33 34 35 36 37 38 39 40 41 42 43 44 45 46 47 48 49 50

000
ASUS43 KGLD 140408
RWRGLD

GOODLAND FORECAST AREA HOURLY WEATHER ROUNDUP
NATIONAL WEATHER SERVICE GOODLAND KS
900 PM MST WED DEC 13 2017

...OFFICIAL OBSERVATIONS...

CITY           SKY/WX    TMP DP  RH WIND       PRES   REMARKS
GOODLAND KS    CLOUDY    34  16  47 NW7       30.06R
HILL CITY KS   CLOUDY    32  19  58 NW6       30.04R
IMPERIAL NEB   CLOUDY    37  20  50 N12       30.07R
MCCOOK NEB     PTCLDY    36  22  56 N10       30.05R
AKRON CO       CLOUDY    37  13  37 NE8       30.09R
BURLINGTON CO  CLOUDY    39  16  39 N9        30.07R
LIMON CO       CLOUDY    37  14  38 N6        30.08R
$$

...UNOFFICIAL OBSERVATIONS...

CITY           SKY/WX    TMP DP  RH WIND       PRES   REMARKS
COLBY KS       CLOUDY    36  21  55 NW3       30.07R
LENORA KS        N/A     34  32  92 N7          N/A
NORTON KS      CLEAR     34  18  51 NW10      30.01
SHARON SPRINGS   N/A     38  17  41 CALM        N/A
TRENTON NEB      N/A     33  32  96 CALM        N/A
KIT CARSON CO    N/A     41  16  35 MISG        N/A
YUMA CO        CLOUDY    36  16  44 N5        30.09R
$$



USA.gov is the U.S. government's official web portal to all federal, state and local government web resources and services.